Time,TemperatureF,DewpointF,PressureIn,WindDirection,WindDirectionDegrees,WindSpeedMPH,WindSpeedGustMPH,Humidity,HourlyPrecipIn,Conditions,Clouds,dailyrainin,SoftwareType,DateUTC
2013-06-12 00:01:00,53.4,49.9,29.78,NW,315,0.0,0.0,88,0.00,,---,1.02,VWS V14.01,2013-06-12 04:01:00,
2013-06-12 00:02:00,53.4,49.9,29.78,NW,315,0.0,0.0,88,0.00,,---,0.00,VWS V14.01,2013-06-12 04:02:00,
2013-06-12 00:07:00,53.4,49.9,29.79,NW,315,0.0,0.0,88,0.00,,---,0.00,VWS V14.01,2013-06-12 04:07:00,
2013-06-12 00:12:00,53.2,49.7,29.78,NW,315,0.0,0.0,88,0.00,,---,0.00,VWS V14.01,2013-06-12 04:12:00,
2013-06-12 00:17:00,53.2,49.7,29.79,NW,315,0.0,0.0,88,0.00,,---,0.00,VWS V14.01,2013-06-12 04:17:00,
2013-06-12 00:22:00,53.2,49.7,29.79,WNW,292,0.0,0.0,88,0.00,,---,0.00,VWS V14.01,2013-06-12 04:22:00,
2013-06-12 00:27:00,53.2,49.7,29.79,ESE,112,0.0,0.0,88,0.00,,---,0.00,VWS V14.01,2013-06-12 04:27:00,
2013-06-12 00:32:00,53.2,49.7,29.79,SE,135,0.0,0.0,88,0.00,,---,0.00,VWS V14.01,2013-06-12 04:32:00,
2013-06-12 00:37:00,53.0,49.5,29.79,NNW,338,0.0,0.0,88,0.00,,---,0.00,VWS V14.01,2013-06-12 04:37:00,
2013-06-12 00:42:00,52.8,49.3,29.79,WNW,292,0.0,0.0,88,0.00,,---,0.00,VWS V14.01,2013-06-12 04:42:00,
2013-06-12 00:47:00,52.8,49.3,29.80,NW,315,0.0,0.0,88,0.00,,---,0.00,VWS V14.01,2013-06-12 04:47:00,
2013-06-12 00:52:00,52.8,49.3,29.80,ESE,112,0.0,0.0,88,0.00,,---,0.00,VWS V14.01,2013-06-12 04:52:00,
2013-06-12 00:57:00,52.7,49.2,29.80,NW,315,0.0,0.0,88,0.00,,---,0.00,VWS V14.01,2013-06-12 04:57:00,
2013-06-12 01:02:00,52.5,49.0,29.79,NNW,338,0.0,0.0,88,0.00,,---,0.00,VWS V14.01,2013-06-12 05:02:00,
2013-06-12 01:07:00,52.5,49.0,29.80,ENE,68,0.0,0.0,88,0.00,,---,0.00,VWS V14.01,2013-06-12 05:07:00,
2013-06-12 01:12:00,52.5,49.0,29.80,SE,135,0.0,0.0,88,0.00,,---,0.00,VWS V14.01,2013-06-12 05:12:00,
2013-06-12 01:17:00,52.3,48.9,29.80,ENE,68,0.0,0.0,88,0.00,,---,0.00,VWS V14.01,2013-06-12 05:17:00,
2013-06-12 01:22:00,52.1,48.7,29.80,NNW,338,0.0,0.0,88,0.00,,---,0.00,VWS V14.01,2013-06-12 05:22:00,
2013-06-12 01:27:00,52.1,48.7,29.80,NNW,338,0.0,0.0,88,0.02,,---,0.02,VWS V14.01,2013-06-12 05:27:00,
2013-06-12 01:32:00,52.1,49.0,29.80,WNW,292,0.0,0.0,89,0.02,,---,0.02,VWS V14.01,2013-06-12 05:32:00,
2013-06-12 01:37:00,51.9,48.8,29.81,WNW,292,0.0,0.0,89,0.02,,---,0.02,VWS V14.01,2013-06-12 05:37:00,
2013-06-12 01:42:00,51.9,48.8,29.80,WNW,292,0.0,0.0,89,0.02,,---,0.02,VWS V14.01,2013-06-12 05:42:00,
2013-06-12 01:47:00,51.9,48.8,29.81,WNW,292,0.0,0.0,89,0.02,,---,0.02,VWS V14.01,2013-06-12 05:47:00,
2013-06-12 01:52:00,51.8,48.7,29.80,WNW,292,0.0,0.0,89,0.02,,---,0.02,VWS V14.01,2013-06-12 05:52:00,
2013-06-12 01:57:00,51.8,48.7,29.81,SSE,158,0.0,0.0,89,0.02,,---,0.02,VWS V14.01,2013-06-12 05:57:00,
2013-06-12 02:02:00,51.6,48.5,29.81,West,270,0.0,0.0,89,0.02,,---,0.02,VWS V14.01,2013-06-12 06:02:00,
2013-06-12 02:07:00,51.6,48.5,29.81,West,270,0.0,0.0,89,0.02,,---,0.02,VWS V14.01,2013-06-12 06:07:00,
2013-06-12 02:12:00,51.6,48.5,29.81,NW,315,0.0,0.0,89,0.02,,---,0.02,VWS V14.01,2013-06-12 06:12:00,
2013-06-12 02:17:00,51.6,48.2,29.81,NW,315,0.0,0.0,88,0.02,,---,0.02,VWS V14.01,2013-06-12 06:17:00,
2013-06-12 02:22:00,51.6,48.2,29.81,NW,315,0.0,0.0,88,0.02,,---,0.02,VWS V14.01,2013-06-12 06:22:00,
2013-06-12 02:27:00,51.6,48.2,29.81,NW,315,0.0,0.0,88,0.00,,---,0.02,VWS V14.01,2013-06-12 06:27:00,
2013-06-12 02:32:00,51.6,48.2,29.81,NW,315,0.0,0.0,88,0.00,,---,0.02,VWS V14.01,2013-06-12 06:32:00,
2013-06-12 02:37:00,51.6,48.2,29.81,NW,315,0.0,0.0,88,0.00,,---,0.02,VWS V14.01,2013-06-12 06:37:00,
2013-06-12 02:42:00,51.6,48.2,29.81,NNW,338,0.0,0.0,88,0.00,,---,0.02,VWS V14.01,2013-06-12 06:42:00,
2013-06-12 02:47:00,51.6,48.2,29.81,NW,315,0.0,0.0,88,0.00,,---,0.02,VWS V14.01,2013-06-12 06:47:00,
2013-06-12 02:52:00,51.6,48.2,29.82,NW,315,0.0,0.0,88,0.00,,---,0.02,VWS V14.01,2013-06-12 06:52:00,
2013-06-12 02:57:00,51.6,48.2,29.82,NW,315,0.0,0.0,88,0.00,,---,0.02,VWS V14.01,2013-06-12 06:57:00,
2013-06-12 03:02:00,51.4,48.0,29.82,NW,315,0.0,0.0,88,0.00,,---,0.02,VWS V14.01,2013-06-12 07:02:00,
2013-06-12 03:07:00,51.6,48.2,29.82,North,0,0.0,0.0,88,0.00,,---,0.02,VWS V14.01,2013-06-12 07:07:00,
2013-06-12 03:12:00,51.4,48.3,29.82,North,0,0.0,0.0,89,0.00,,---,0.02,VWS V14.01,2013-06-12 07:12:00,
2013-06-12 03:17:00,51.4,48.3,29.81,NNW,338,0.0,0.0,89,0.00,,---,0.02,VWS V14.01,2013-06-12 07:17:00,
2013-06-12 03:22:00,51.4,48.3,29.81,NW,315,0.0,0.0,89,0.00,,---,0.02,VWS V14.01,2013-06-12 07:22:00,
2013-06-12 03:27:00,51.4,48.3,29.82,NW,315,0.0,0.0,89,0.00,,---,0.02,VWS V14.01,2013-06-12 07:27:00,
2013-06-12 03:32:00,51.4,48.3,29.82,NW,315,0.0,0.0,89,0.00,,---,0.02,VWS V14.01,2013-06-12 07:32:00,
2013-06-12 03:37:00,51.4,48.3,29.81,NW,315,0.0,0.0,89,0.00,,---,0.02,VWS V14.01,2013-06-12 07:37:00,
2013-06-12 03:42:00,51.4,48.3,29.82,NW,315,0.0,0.0,89,0.00,,---,0.02,VWS V14.01,2013-06-12 07:42:00,
2013-06-12 03:47:00,51.4,48.3,29.82,NW,315,0.0,0.0,89,0.02,,---,0.04,VWS V14.01,2013-06-12 07:47:00,
2013-06-12 03:52:00,51.4,48.3,29.82,NW,315,0.0,0.0,89,0.02,,---,0.04,VWS V14.01,2013-06-12 07:52:00,
2013-06-12 03:57:00,51.2,48.1,29.82,NW,315,0.0,0.0,89,0.02,,---,0.04,VWS V14.01,2013-06-12 07:57:00,
2013-06-12 04:02:00,51.2,48.1,29.82,NW,315,0.0,0.0,89,0.02,,---,0.04,VWS V14.01,2013-06-12 08:02:00,
2013-06-12 04:07:00,51.2,48.1,29.83,NW,315,0.0,0.0,89,0.02,,---,0.04,VWS V14.01,2013-06-12 08:07:00,
2013-06-12 04:12:00,51.2,48.1,29.83,NW,315,0.0,0.0,89,0.02,,---,0.04,VWS V14.01,2013-06-12 08:12:00,
2013-06-12 04:17:00,51.2,48.1,29.83,NW,315,0.0,0.0,89,0.02,,---,0.04,VWS V14.01,2013-06-12 08:17:00,
2013-06-12 04:22:00,51.2,48.1,29.83,NW,315,0.0,0.0,89,0.02,,---,0.04,VWS V14.01,2013-06-12 08:22:00,
2013-06-12 04:27:00,51.2,48.1,29.84,NW,315,0.0,0.0,89,0.02,,---,0.04,VWS V14.01,2013-06-12 08:27:00,
2013-06-12 04:32:00,51.0,47.9,29.84,NW,315,0.0,0.0,89,0.02,,---,0.04,VWS V14.01,2013-06-12 08:32:00,
2013-06-12 04:37:00,51.2,48.1,29.84,NW,315,0.0,0.0,89,0.02,,---,0.04,VWS V14.01,2013-06-12 08:37:00,
2013-06-12 04:42:00,51.2,48.1,29.84,NW,315,0.0,0.0,89,0.02,,---,0.04,VWS V14.01,2013-06-12 08:42:00,
2013-06-12 04:47:00,51.2,48.1,29.84,NW,315,0.0,0.0,89,0.00,,---,0.04,VWS V14.01,2013-06-12 08:47:00,
2013-06-12 04:52:00,51.2,48.1,29.84,NNW,338,0.0,0.0,89,0.00,,---,0.04,VWS V14.01,2013-06-12 08:52:00,
2013-06-12 04:57:00,51.0,47.9,29.84,NNW,338,0.0,0.0,89,0.00,,---,0.04,VWS V14.01,2013-06-12 08:57:00,
2013-06-12 05:02:00,51.0,47.9,29.85,NNW,338,0.0,0.0,89,0.00,,---,0.04,VWS V14.01,2013-06-12 09:02:00,
2013-06-12 05:07:00,51.2,48.1,29.85,NE,45,0.0,0.0,89,0.00,,---,0.04,VWS V14.01,2013-06-12 09:07:00,
2013-06-12 05:12:00,51.0,47.9,29.85,NE,45,0.0,0.0,89,0.00,,---,0.04,VWS V14.01,2013-06-12 09:12:00,
2013-06-12 05:17:00,51.2,48.1,29.86,NE,45,0.0,0.0,89,0.00,,---,0.04,VWS V14.01,2013-06-12 09:17:00,
2013-06-12 05:22:00,51.2,48.1,29.86,NNE,22,0.0,0.0,89,0.00,,---,0.04,VWS V14.01,2013-06-12 09:22:00,
2013-06-12 05:27:00,51.2,48.1,29.85,NNE,22,0.0,0.0,89,0.00,,---,0.04,VWS V14.01,2013-06-12 09:27:00,
2013-06-12 05:32:00,51.2,48.1,29.86,NNE,22,0.0,0.0,89,0.00,,---,0.04,VWS V14.01,2013-06-12 09:32:00,
2013-06-12 05:37:00,51.2,48.1,29.86,NNE,22,0.0,0.0,89,0.00,,---,0.04,VWS V14.01,2013-06-12 09:37:00,
2013-06-12 05:42:00,51.2,48.1,29.86,NNE,22,0.0,0.0,89,0.00,,---,0.04,VWS V14.01,2013-06-12 09:42:00,
2013-06-12 05:47:00,51.2,48.4,29.86,NNE,22,0.0,0.0,90,0.00,,---,0.04,VWS V14.01,2013-06-12 09:47:00,
2013-06-12 05:52:00,51.2,48.4,29.86,NNE,22,0.0,0.0,90,0.00,,---,0.04,VWS V14.01,2013-06-12 09:52:00,
2013-06-12 05:57:00,51.2,48.4,29.86,NNE,22,0.0,0.0,90,0.00,,---,0.04,VWS V14.01,2013-06-12 09:57:00,
2013-06-12 06:02:00,51.0,48.2,29.87,NNE,22,0.0,0.0,90,0.00,,---,0.04,VWS V14.01,2013-06-12 10:02:00,
2013-06-12 06:07:00,51.2,48.4,29.87,NNE,22,0.0,0.0,90,0.00,,---,0.04,VWS V14.01,2013-06-12 10:07:00,
2013-06-12 06:12:00,51.2,48.4,29.88,NNE,22,0.0,0.0,90,0.00,,---,0.04,VWS V14.01,2013-06-12 10:12:00,
2013-06-12 06:17:00,51.2,48.4,29.88,NNE,22,0.0,0.0,90,0.00,,---,0.04,VWS V14.01,2013-06-12 10:17:00,
2013-06-12 06:22:00,51.2,48.4,29.88,NNE,22,0.0,0.0,90,0.02,,---,0.06,VWS V14.01,2013-06-12 10:22:00,
2013-06-12 06:26:00,51.2,48.4,29.88,WNW,292,0.0,0.0,90,0.02,,---,0.06,VWS V14.01,2013-06-12 10:26:00,
2013-06-12 06:31:00,51.2,48.4,29.88,WNW,292,0.0,0.0,90,0.02,,---,0.06,VWS V14.01,2013-06-12 10:31:00,
2013-06-12 06:36:00,51.2,48.4,29.89,WNW,292,0.0,0.0,90,0.02,,---,0.06,VWS V14.01,2013-06-12 10:36:00,
2013-06-12 06:41:00,51.2,48.4,29.89,ENE,68,0.0,0.0,90,0.02,,---,0.06,VWS V14.01,2013-06-12 10:41:00,
2013-06-12 06:46:00,51.2,48.4,29.89,ENE,68,0.0,0.0,90,0.02,,---,0.06,VWS V14.01,2013-06-12 10:46:00,
2013-06-12 06:51:00,51.2,48.4,29.89,ESE,112,0.0,0.0,90,0.02,,---,0.06,VWS V14.01,2013-06-12 10:51:00,
2013-06-12 06:56:00,51.2,48.4,29.89,ESE,112,0.0,0.0,90,0.02,,---,0.06,VWS V14.01,2013-06-12 10:56:00,
2013-06-12 07:01:00,51.2,48.4,29.89,ESE,112,0.0,0.0,90,0.02,,---,0.06,VWS V14.01,2013-06-12 11:01:00,
2013-06-12 07:06:00,51.2,48.4,29.89,NW,315,0.0,0.0,90,0.02,,---,0.06,VWS V14.01,2013-06-12 11:06:00,
2013-06-12 07:11:00,51.4,48.6,29.90,NW,315,0.0,0.0,90,0.02,,---,0.06,VWS V14.01,2013-06-12 11:11:00,
2013-06-12 07:16:00,51.2,48.4,29.90,NNW,338,0.0,0.0,90,0.02,,---,0.06,VWS V14.01,2013-06-12 11:16:00,
2013-06-12 07:21:00,51.4,48.6,29.90,WNW,292,0.0,0.0,90,0.00,,---,0.06,VWS V14.01,2013-06-12 11:21:00,
2013-06-12 07:26:00,51.4,48.6,29.90,WNW,292,0.0,0.0,90,0.00,,---,0.06,VWS V14.01,2013-06-12 11:26:00,
2013-06-12 07:31:00,51.4,48.6,29.90,ESE,112,0.0,0.0,90,0.00,,---,0.06,VWS V14.01,2013-06-12 11:31:00,
2013-06-12 07:36:00,51.6,48.8,29.91,NNE,22,0.0,0.0,90,0.00,,---,0.06,VWS V14.01,2013-06-12 11:36:00,
2013-06-12 07:41:00,51.6,48.8,29.90,ENE,68,0.0,0.0,90,0.00,,---,0.06,VWS V14.01,2013-06-12 11:41:00,
2013-06-12 07:46:00,51.6,48.5,29.91,ENE,68,0.0,0.0,89,0.00,,---,0.06,VWS V14.01,2013-06-12 11:46:00,
2013-06-12 07:51:00,51.6,48.5,29.91,East,90,0.0,0.0,89,0.00,,---,0.06,VWS V14.01,2013-06-12 11:51:00,
2013-06-12 07:56:00,51.8,48.7,29.91,NW,315,0.0,0.0,89,0.00,,---,0.06,VWS V14.01,2013-06-12 11:56:00,
2013-06-12 08:01:00,51.8,48.7,29.91,NW,315,0.0,0.0,89,0.00,,---,0.06,VWS V14.01,2013-06-12 12:01:00,
2013-06-12 08:06:00,51.9,48.8,29.92,NW,315,0.0,0.0,89,0.00,,---,0.06,VWS V14.01,2013-06-12 12:06:00,
2013-06-12 08:11:00,51.9,48.8,29.92,NW,315,0.0,0.0,89,0.00,,---,0.06,VWS V14.01,2013-06-12 12:11:00,
2013-06-12 08:16:00,52.1,49.0,29.92,NW,315,0.0,0.0,89,0.00,,---,0.06,VWS V14.01,2013-06-12 12:16:00,
2013-06-12 08:21:00,52.1,49.0,29.92,WNW,292,0.0,0.0,89,0.00,,---,0.06,VWS V14.01,2013-06-12 12:21:00,
2013-06-12 08:26:00,52.1,49.0,29.92,NW,315,0.0,0.0,89,0.00,,---,0.06,VWS V14.01,2013-06-12 12:26:00,
2013-06-12 08:31:00,52.1,49.0,29.92,NW,315,0.0,0.0,89,0.00,,---,0.06,VWS V14.01,2013-06-12 12:31:00,
2013-06-12 08:36:00,51.9,48.8,29.93,NW,315,0.0,0.0,89,0.00,,---,0.06,VWS V14.01,2013-06-12 12:36:00,
2013-06-12 08:41:00,51.9,48.8,29.93,WNW,292,0.0,0.0,89,0.00,,---,0.06,VWS V14.01,2013-06-12 12:41:00,
2013-06-12 08:46:00,52.1,49.0,29.93,WNW,292,0.0,0.0,89,0.00,,---,0.06,VWS V14.01,2013-06-12 12:46:00,
2013-06-12 08:51:00,52.1,49.0,29.93,WNW,292,0.0,0.0,89,0.00,,---,0.06,VWS V14.01,2013-06-12 12:51:00,
2013-06-12 08:56:00,52.1,49.0,29.93,NW,315,0.0,0.0,89,0.00,,---,0.06,VWS V14.01,2013-06-12 12:56:00,
2013-06-12 09:01:00,52.3,49.2,29.93,NW,315,0.0,0.0,89,0.00,,---,0.06,VWS V14.01,2013-06-12 13:01:00,
2013-06-12 09:06:00,52.3,49.2,29.93,WNW,292,0.0,0.0,89,0.00,,---,0.06,VWS V14.01,2013-06-12 13:06:00,
2013-06-12 09:11:00,52.3,49.2,29.93,WNW,292,0.0,0.0,89,0.00,,---,0.06,VWS V14.01,2013-06-12 13:11:00,
2013-06-12 09:16:00,52.5,49.4,29.93,West,270,0.0,0.0,89,0.00,,---,0.06,VWS V14.01,2013-06-12 13:16:00,
2013-06-12 09:21:00,52.7,49.5,29.93,WNW,292,0.0,0.0,89,0.00,,---,0.06,VWS V14.01,2013-06-12 13:21:00,
2013-06-12 09:26:00,52.8,49.7,29.93,WNW,292,0.0,0.0,89,0.00,,---,0.06,VWS V14.01,2013-06-12 13:26:00,
2013-06-12 09:31:00,52.8,49.7,29.94,WNW,292,0.0,0.0,89,0.00,,---,0.06,VWS V14.01,2013-06-12 13:31:00,
2013-06-12 09:36:00,53.2,50.0,29.94,ENE,68,0.0,0.0,89,0.00,,---,0.06,VWS V14.01,2013-06-12 13:36:00,
2013-06-12 09:41:00,53.4,49.9,29.93,East,90,0.0,0.0,88,0.00,,---,0.06,VWS V14.01,2013-06-12 13:41:00,
2013-06-12 09:46:00,53.4,49.9,29.93,North,0,0.0,0.0,88,0.00,,---,0.06,VWS V14.01,2013-06-12 13:46:00,
2013-06-12 09:51:00,53.6,50.1,29.93,SE,135,0.0,0.0,88,0.00,,---,0.06,VWS V14.01,2013-06-12 13:51:00,
2013-06-12 09:56:00,53.7,50.2,29.93,North,0,0.0,0.0,88,0.00,,---,0.06,VWS V14.01,2013-06-12 13:56:00,
2013-06-12 10:01:00,53.9,50.1,29.93,NW,315,0.0,0.0,87,0.00,,---,0.06,VWS V14.01,2013-06-12 14:01:00,
2013-06-12 10:06:00,54.1,50.3,29.93,ENE,68,0.0,0.0,87,0.00,,---,0.06,VWS V14.01,2013-06-12 14:06:00,
2013-06-12 10:11:00,54.5,50.7,29.94,NW,315,0.0,0.0,87,0.00,,---,0.06,VWS V14.01,2013-06-12 14:11:00,
2013-06-12 10:16:00,54.6,50.8,29.94,WNW,292,0.0,0.0,87,0.00,,---,0.06,VWS V14.01,2013-06-12 14:16:00,
2013-06-12 10:21:00,54.6,50.5,29.94,SE,135,0.0,0.0,86,0.00,,---,0.06,VWS V14.01,2013-06-12 14:21:00,
2013-06-12 10:26:00,54.6,50.5,29.94,South,180,0.0,0.0,86,0.00,,---,0.06,VWS V14.01,2013-06-12 14:26:00,
2013-06-12 10:31:00,54.8,50.7,29.94,NW,315,0.0,0.0,86,0.00,,---,0.06,VWS V14.01,2013-06-12 14:31:00,
2013-06-12 10:36:00,55.0,50.9,29.95,NW,315,0.0,0.0,86,0.00,,---,0.06,VWS V14.01,2013-06-12 14:36:00,
2013-06-12 10:41:00,55.2,51.1,29.95,West,270,0.0,0.0,86,0.00,,---,0.06,VWS V14.01,2013-06-12 14:41:00,
2013-06-12 10:46:00,55.5,51.1,29.95,WNW,292,0.0,0.0,85,0.00,,---,0.06,VWS V14.01,2013-06-12 14:46:00,
2013-06-12 10:51:00,55.9,51.5,29.95,ENE,68,0.0,0.0,85,0.00,,---,0.06,VWS V14.01,2013-06-12 14:51:00,
2013-06-12 10:56:00,56.1,51.3,29.95,South,180,0.0,0.0,84,0.00,,---,0.06,VWS V14.01,2013-06-12 14:56:00,
2013-06-12 11:01:00,56.4,51.6,29.95,ESE,112,0.0,0.0,84,0.00,,---,0.06,VWS V14.01,2013-06-12 15:01:00,
2013-06-12 11:06:00,57.0,52.2,29.94,NW,315,0.0,0.0,84,0.00,,---,0.06,VWS V14.01,2013-06-12 15:06:00,
2013-06-12 11:11:00,57.5,52.7,29.95,SE,135,0.0,0.0,84,0.00,,---,0.06,VWS V14.01,2013-06-12 15:11:00,
2013-06-12 11:16:00,57.9,52.5,29.95,WNW,292,0.0,0.0,82,0.00,,---,0.06,VWS V14.01,2013-06-12 15:16:00,
2013-06-12 11:21:00,57.9,52.1,29.95,WNW,292,0.0,0.0,81,0.00,,---,0.06,VWS V14.01,2013-06-12 15:21:00,
2013-06-12 11:26:00,58.2,52.4,29.95,NW,315,0.0,0.0,81,0.00,,---,0.06,VWS V14.01,2013-06-12 15:26:00,
2013-06-12 11:31:00,58.8,53.3,29.95,NW,315,6.4,6.4,82,0.00,,---,0.06,VWS V14.01,2013-06-12 15:31:00,
2013-06-12 11:36:00,58.8,53.0,29.96,NW,315,0.0,0.0,81,0.00,,---,0.06,VWS V14.01,2013-06-12 15:36:00,
2013-06-12 11:41:00,59.5,53.7,29.96,WNW,292,0.0,0.0,81,0.00,,---,0.06,VWS V14.01,2013-06-12 15:41:00,
2013-06-12 11:46:00,59.5,53.3,29.96,SE,135,0.0,0.0,80,0.00,,---,0.06,VWS V14.01,2013-06-12 15:46:00,
2013-06-12 11:51:00,59.5,53.3,29.96,SE,135,0.0,0.0,80,0.00,,---,0.06,VWS V14.01,2013-06-12 15:51:00,
2013-06-12 11:56:00,59.7,53.2,29.96,ENE,68,0.0,0.0,79,0.00,,---,0.06,VWS V14.01,2013-06-12 15:56:00,
2013-06-12 12:01:00,59.9,53.0,29.96,WNW,292,0.0,0.0,78,0.00,,---,0.06,VWS V14.01,2013-06-12 16:01:00,
2013-06-12 12:06:00,60.0,53.1,29.96,West,270,0.0,0.0,78,0.00,,---,0.06,VWS V14.01,2013-06-12 16:06:00,
2013-06-12 12:11:00,60.4,53.2,29.96,SE,135,0.0,0.0,77,0.00,,---,0.06,VWS V14.01,2013-06-12 16:11:00,
2013-06-12 12:16:00,60.4,53.2,29.96,WNW,292,0.0,0.0,77,0.00,,---,0.06,VWS V14.01,2013-06-12 16:16:00,
2013-06-12 12:22:00,60.9,53.3,29.96,SE,135,0.0,0.0,76,0.00,,---,0.06,VWS V14.01,2013-06-12 16:22:00,
2013-06-12 12:27:00,61.5,54.2,29.96,South,180,0.0,0.0,77,0.00,,---,0.06,VWS V14.01,2013-06-12 16:27:00,
2013-06-12 12:31:00,61.7,54.1,29.96,WNW,292,0.0,0.0,76,0.00,,---,0.06,VWS V14.01,2013-06-12 16:31:00,
2013-06-12 12:36:00,61.8,53.8,29.96,NW,315,0.0,0.0,75,0.00,,---,0.06,VWS V14.01,2013-06-12 16:36:00,
2013-06-12 12:41:00,61.8,53.8,29.96,NW,315,0.0,0.0,75,0.00,,---,0.06,VWS V14.01,2013-06-12 16:41:00,
2013-06-12 12:46:00,62.2,54.2,29.97,NW,315,0.0,0.0,75,0.00,,---,0.06,VWS V14.01,2013-06-12 16:46:00,
2013-06-12 12:51:00,62.2,53.8,29.97,NW,315,0.0,0.0,74,0.00,,---,0.06,VWS V14.01,2013-06-12 16:51:00,
2013-06-12 12:56:00,62.4,54.0,29.97,ENE,68,0.0,0.0,74,0.00,,---,0.06,VWS V14.01,2013-06-12 16:56:00,
2013-06-12 13:01:00,62.4,54.4,29.97,NNW,338,0.0,0.0,75,0.00,,---,0.06,VWS V14.01,2013-06-12 17:01:00,
2013-06-12 13:06:00,62.6,53.8,29.97,West,270,0.0,0.0,73,0.00,,---,0.06,VWS V14.01,2013-06-12 17:06:00,
2013-06-12 13:11:00,62.6,53.8,29.97,WNW,292,0.0,0.0,73,0.00,,---,0.06,VWS V14.01,2013-06-12 17:11:00,
2013-06-12 13:16:00,62.9,54.5,29.97,NE,45,0.0,0.0,74,0.00,,---,0.06,VWS V14.01,2013-06-12 17:16:00,
2013-06-12 13:21:00,63.3,54.1,29.97,SE,135,0.0,0.0,72,0.00,,---,0.06,VWS V14.01,2013-06-12 17:21:00,
2013-06-12 13:26:00,63.5,54.3,29.97,NW,315,0.0,0.0,72,0.00,,---,0.06,VWS V14.01,2013-06-12 17:26:00,
2013-06-12 13:31:00,63.5,53.9,29.96,NW,315,0.0,0.0,71,0.00,,---,0.06,VWS V14.01,2013-06-12 17:31:00,
2013-06-12 13:36:00,63.6,54.0,29.97,NNW,338,0.0,0.0,71,0.00,,---,0.06,VWS V14.01,2013-06-12 17:36:00,
2013-06-12 13:41:00,63.6,54.0,29.97,NW,315,0.0,0.0,71,0.00,,---,0.06,VWS V14.01,2013-06-12 17:41:00,
2013-06-12 13:46:00,63.5,53.5,29.97,NW,315,0.0,0.0,70,0.00,,---,0.06,VWS V14.01,2013-06-12 17:46:00,
2013-06-12 13:51:00,63.5,53.5,29.97,ENE,68,0.0,0.0,70,0.00,,---,0.06,VWS V14.01,2013-06-12 17:51:00,
2013-06-12 13:56:00,63.6,53.7,29.97,WNW,292,0.0,0.0,70,0.00,,---,0.06,VWS V14.01,2013-06-12 17:56:00,
2013-06-12 14:01:00,64.0,54.4,29.96,WNW,292,0.0,0.0,71,0.00,,---,0.06,VWS V14.01,2013-06-12 18:01:00,
2013-06-12 14:06:00,64.2,54.6,29.96,WNW,292,0.0,0.0,71,0.00,,---,0.06,VWS V14.01,2013-06-12 18:06:00,
2013-06-12 14:11:00,64.5,54.9,29.96,NW,315,0.0,0.0,71,0.00,,---,0.06,VWS V14.01,2013-06-12 18:11:00,
2013-06-12 14:16:00,65.1,55.1,29.96,ENE,68,0.0,0.0,70,0.00,,---,0.06,VWS V14.01,2013-06-12 18:16:00,
2013-06-12 14:21:00,65.6,55.6,29.96,NW,315,2.9,2.9,70,0.00,,---,0.06,VWS V14.01,2013-06-12 18:21:00,
2013-06-12 14:26:00,65.8,55.0,29.95,NW,315,0.0,0.0,68,0.00,,---,0.06,VWS V14.01,2013-06-12 18:26:00,
2013-06-12 14:31:00,66.0,54.7,29.95,WSW,248,0.0,0.0,67,0.00,,---,0.06,VWS V14.01,2013-06-12 18:31:00,
2013-06-12 14:36:00,65.8,54.1,29.95,NW,315,0.0,0.0,66,0.00,,---,0.06,VWS V14.01,2013-06-12 18:36:00,
2013-06-12 14:41:00,65.8,54.5,29.94,NW,315,0.0,0.0,67,0.00,,---,0.06,VWS V14.01,2013-06-12 18:41:00,
2013-06-12 14:46:00,66.0,54.7,29.94,WNW,292,0.0,0.0,67,0.00,,---,0.06,VWS V14.01,2013-06-12 18:46:00,
2013-06-12 14:51:00,66.0,54.7,29.94,WSW,248,0.0,0.0,67,0.00,,---,0.06,VWS V14.01,2013-06-12 18:51:00,
2013-06-12 14:56:00,66.3,55.0,29.94,NNE,22,0.0,0.0,67,0.00,,---,0.06,VWS V14.01,2013-06-12 18:56:00,
2013-06-12 15:01:00,66.7,55.0,29.94,NW,315,0.0,0.0,66,0.00,,---,0.06,VWS V14.01,2013-06-12 19:01:00,
2013-06-12 15:06:00,66.7,55.0,29.94,SE,135,0.0,0.0,66,0.00,,---,0.06,VWS V14.01,2013-06-12 19:06:00,
2013-06-12 15:11:00,67.1,55.8,29.93,NNW,338,0.0,0.0,67,0.00,,---,0.06,VWS V14.01,2013-06-12 19:11:00,
2013-06-12 15:16:00,67.2,55.5,29.93,WNW,292,0.0,0.0,66,0.00,,---,0.06,VWS V14.01,2013-06-12 19:16:00,
2013-06-12 15:21:00,67.2,55.0,29.93,WNW,292,0.0,0.0,65,0.00,,---,0.06,VWS V14.01,2013-06-12 19:21:00,
2013-06-12 15:26:00,67.2,55.0,29.94,SW,225,0.0,0.0,65,0.00,,---,0.06,VWS V14.01,2013-06-12 19:26:00,
2013-06-12 15:31:00,67.4,55.7,29.93,NW,315,0.0,0.0,66,0.00,,---,0.06,VWS V14.01,2013-06-12 19:31:00,
2013-06-12 15:36:00,67.8,55.6,29.93,NW,315,0.0,0.0,65,0.00,,---,0.06,VWS V14.01,2013-06-12 19:36:00,
2013-06-12 15:41:00,67.8,55.6,29.93,NNE,22,0.0,0.0,65,0.00,,---,0.06,VWS V14.01,2013-06-12 19:41:00,
2013-06-12 15:46:00,67.8,55.6,29.93,North,0,0.0,0.0,65,0.00,,---,0.06,VWS V14.01,2013-06-12 19:46:00,
2013-06-12 15:51:00,67.8,55.6,29.93,ESE,112,0.0,0.0,65,0.00,,---,0.06,VWS V14.01,2013-06-12 19:51:00,
2013-06-12 15:56:00,68.3,55.7,29.93,NW,315,0.0,0.0,64,0.00,,---,0.06,VWS V14.01,2013-06-12 19:56:00,
2013-06-12 16:01:00,68.5,55.9,29.93,SSE,158,0.0,0.0,64,0.00,,---,0.06,VWS V14.01,2013-06-12 20:01:00,
2013-06-12 16:06:00,68.3,55.7,29.93,SE,135,0.0,0.0,64,0.00,,---,0.06,VWS V14.01,2013-06-12 20:06:00,
2013-06-12 16:11:00,68.1,55.0,29.93,NNE,22,0.0,0.0,63,0.00,,---,0.06,VWS V14.01,2013-06-12 20:11:00,
2013-06-12 16:16:00,68.5,55.4,29.93,NNW,338,0.0,0.0,63,0.00,,---,0.06,VWS V14.01,2013-06-12 20:16:00,
2013-06-12 16:21:00,68.5,55.0,29.93,NW,315,0.0,0.0,62,0.00,,---,0.06,VWS V14.01,2013-06-12 20:21:00,
2013-06-12 16:26:00,68.7,54.7,29.93,NW,315,0.0,0.0,61,0.00,,---,0.06,VWS V14.01,2013-06-12 20:26:00,
2013-06-12 16:31:00,68.5,54.5,29.93,NW,315,0.0,0.0,61,0.00,,---,0.06,VWS V14.01,2013-06-12 20:31:00,
2013-06-12 16:36:00,68.5,54.5,29.93,NW,315,0.0,0.0,61,0.00,,---,0.06,VWS V14.01,2013-06-12 20:36:00,
2013-06-12 16:41:00,68.5,55.0,29.92,NNE,22,0.0,0.0,62,0.00,,---,0.06,VWS V14.01,2013-06-12 20:41:00,
2013-06-12 16:46:00,68.5,54.5,29.92,NNW,338,0.0,0.0,61,0.00,,---,0.06,VWS V14.01,2013-06-12 20:46:00,
2013-06-12 16:51:00,68.5,54.5,29.92,NE,45,0.0,0.0,61,0.00,,---,0.06,VWS V14.01,2013-06-12 20:51:00,
2013-06-12 16:56:00,68.5,55.0,29.92,NE,45,0.0,0.0,62,0.00,,---,0.06,VWS V14.01,2013-06-12 20:56:00,
2013-06-12 17:01:00,68.7,55.2,29.92,WNW,292,0.0,0.0,62,0.00,,---,0.06,VWS V14.01,2013-06-12 21:01:00,
2013-06-12 17:06:00,68.9,54.0,29.92,SE,135,0.0,0.0,59,0.00,,---,0.06,VWS V14.01,2013-06-12 21:06:00,
2013-06-12 17:11:00,69.0,54.1,29.92,SSE,158,0.0,0.0,59,0.00,,---,0.06,VWS V14.01,2013-06-12 21:11:00,
2013-06-12 17:16:00,69.4,54.5,29.92,NW,315,0.0,0.0,59,0.00,,---,0.06,VWS V14.01,2013-06-12 21:16:00,
2013-06-12 17:21:00,69.4,54.9,29.92,WNW,292,0.0,0.0,60,0.00,,---,0.06,VWS V14.01,2013-06-12 21:21:00,
2013-06-12 17:26:00,69.6,55.1,29.92,NNW,338,0.0,0.0,60,0.00,,---,0.06,VWS V14.01,2013-06-12 21:26:00,
2013-06-12 17:31:00,69.6,54.2,29.92,NE,45,0.0,0.0,58,0.00,,---,0.06,VWS V14.01,2013-06-12 21:31:00,
2013-06-12 17:36:00,69.4,54.0,29.93,NW,315,0.0,0.0,58,0.00,,---,0.06,VWS V14.01,2013-06-12 21:36:00,
2013-06-12 17:41:00,69.4,54.0,29.92,NW,315,0.0,0.0,58,0.00,,---,0.06,VWS V14.01,2013-06-12 21:41:00,
2013-06-12 17:46:00,69.4,54.5,29.92,NNW,338,0.0,0.0,59,0.00,,---,0.06,VWS V14.01,2013-06-12 21:46:00,
2013-06-12 17:51:00,69.0,53.6,29.92,NNW,338,0.0,0.0,58,0.00,,---,0.06,VWS V14.01,2013-06-12 21:51:00,
2013-06-12 17:56:00,69.0,53.2,29.92,SE,135,0.0,0.0,57,0.00,,---,0.06,VWS V14.01,2013-06-12 21:56:00,
2013-06-12 18:01:00,68.9,53.1,29.92,West,270,0.0,0.0,57,0.00,,---,0.06,VWS V14.01,2013-06-12 22:01:00,
2013-06-12 18:06:00,68.7,52.9,29.93,NNW,338,0.0,0.0,57,0.00,,---,0.06,VWS V14.01,2013-06-12 22:06:00,
2013-06-12 18:11:00,68.5,52.7,29.92,NNW,338,0.0,0.0,57,0.00,,---,0.06,VWS V14.01,2013-06-12 22:11:00,
2013-06-12 18:16:00,68.3,53.0,29.92,NW,315,0.0,0.0,58,0.00,,---,0.06,VWS V14.01,2013-06-12 22:16:00,
2013-06-12 18:21:00,67.8,52.5,29.93,NW,315,0.0,0.0,58,0.00,,---,0.06,VWS V14.01,2013-06-12 22:21:00,
2013-06-12 18:26:00,67.8,53.0,29.93,NW,315,0.0,0.0,59,0.00,,---,0.06,VWS V14.01,2013-06-12 22:26:00,
2013-06-12 18:31:00,67.6,52.8,29.93,NW,315,0.0,0.0,59,0.00,,---,0.06,VWS V14.01,2013-06-12 22:31:00,
2013-06-12 18:36:00,67.2,52.9,29.93,NW,315,0.0,0.0,60,0.00,,---,0.06,VWS V14.01,2013-06-12 22:36:00,
2013-06-12 18:41:00,67.2,52.9,29.94,NW,315,0.0,0.0,60,0.00,,---,0.06,VWS V14.01,2013-06-12 22:41:00,
2013-06-12 18:46:00,67.1,53.2,29.94,NW,315,0.0,0.0,61,0.00,,---,0.06,VWS V14.01,2013-06-12 22:46:00,
2013-06-12 18:51:00,66.9,53.0,29.94,NW,315,0.0,0.0,61,0.00,,---,0.06,VWS V14.01,2013-06-12 22:51:00,
2013-06-12 18:56:00,66.7,52.8,29.94,NNW,338,0.0,0.0,61,0.00,,---,0.06,VWS V14.01,2013-06-12 22:56:00,
2013-06-12 19:01:00,66.5,53.1,29.94,WNW,292,0.0,0.0,62,0.00,,---,0.06,VWS V14.01,2013-06-12 23:01:00,
2013-06-12 19:06:00,66.3,52.9,29.94,WNW,292,0.0,0.0,62,0.00,,---,0.06,VWS V14.01,2013-06-12 23:06:00,
2013-06-12 19:11:00,66.2,52.8,29.95,WNW,292,0.0,0.0,62,0.00,,---,0.06,VWS V14.01,2013-06-12 23:11:00,
2013-06-12 19:16:00,66.0,52.6,29.94,WNW,292,0.0,0.0,62,0.00,,---,0.06,VWS V14.01,2013-06-12 23:16:00,
2013-06-12 19:21:00,65.8,52.4,29.94,WNW,292,0.0,0.0,62,0.00,,---,0.06,VWS V14.01,2013-06-12 23:21:00,
2013-06-12 19:26:00,65.4,52.1,29.94,WNW,292,0.0,0.0,62,0.00,,---,0.06,VWS V14.01,2013-06-12 23:26:00,
2013-06-12 19:31:00,65.1,52.2,29.94,WNW,292,0.0,0.0,63,0.00,,---,0.06,VWS V14.01,2013-06-12 23:31:00,
2013-06-12 19:36:00,65.1,52.6,29.94,WNW,292,0.0,0.0,64,0.00,,---,0.06,VWS V14.01,2013-06-12 23:36:00,
2013-06-12 19:41:00,64.9,52.5,29.95,WNW,292,0.0,0.0,64,0.00,,---,0.06,VWS V14.01,2013-06-12 23:41:00,
2013-06-12 19:46:00,64.7,52.7,29.95,WNW,292,0.0,0.0,65,0.00,,---,0.06,VWS V14.01,2013-06-12 23:46:00,
2013-06-12 19:51:00,64.7,52.7,29.95,WNW,292,0.0,0.0,65,0.00,,---,0.06,VWS V14.01,2013-06-12 23:51:00,
2013-06-12 19:56:00,64.5,52.9,29.94,WNW,292,0.0,0.0,66,0.00,,---,0.06,VWS V14.01,2013-06-12 23:56:00,
2013-06-12 20:01:00,64.4,52.8,29.95,NW,315,0.0,0.0,66,0.00,,---,0.06,VWS V14.01,2013-06-13 00:01:00,
2013-06-12 20:06:00,64.2,52.6,29.94,NW,315,0.0,0.0,66,0.00,,---,0.06,VWS V14.01,2013-06-13 00:06:00,
2013-06-12 20:11:00,64.0,52.4,29.94,WNW,292,0.0,0.0,66,0.00,,---,0.06,VWS V14.01,2013-06-13 00:11:00,
2013-06-12 20:16:00,63.6,52.5,29.94,WNW,292,0.0,0.0,67,0.00,,---,0.06,VWS V14.01,2013-06-13 00:16:00,
2013-06-12 20:21:00,63.6,52.5,29.94,WNW,292,0.0,0.0,67,0.00,,---,0.06,VWS V14.01,2013-06-13 00:21:00,
2013-06-12 20:26:00,63.5,52.8,29.94,WNW,292,0.0,0.0,68,0.00,,---,0.06,VWS V14.01,2013-06-13 00:26:00,
2013-06-12 20:31:00,63.1,52.4,29.94,WNW,292,0.0,0.0,68,0.00,,---,0.06,VWS V14.01,2013-06-13 00:31:00,
2013-06-12 20:36:00,63.1,52.4,29.94,WNW,292,0.0,0.0,68,0.00,,---,0.06,VWS V14.01,2013-06-13 00:36:00,
2013-06-12 20:41:00,62.7,52.0,29.94,WNW,292,0.0,0.0,68,0.00,,---,0.06,VWS V14.01,2013-06-13 00:41:00,
2013-06-12 20:46:00,62.4,52.1,29.94,WNW,292,0.0,0.0,69,0.00,,---,0.06,VWS V14.01,2013-06-13 00:46:00,
2013-06-12 20:51:00,62.2,51.9,29.95,WNW,292,0.0,0.0,69,0.00,,---,0.06,VWS V14.01,2013-06-13 00:51:00,
2013-06-12 20:56:00,61.8,51.5,29.95,WNW,292,0.0,0.0,69,0.00,,---,0.06,VWS V14.01,2013-06-13 00:56:00,
2013-06-12 21:01:00,61.5,51.6,29.95,WNW,292,0.0,0.0,70,0.00,,---,0.06,VWS V14.01,2013-06-13 01:01:00,
2013-06-12 21:06:00,61.1,51.2,29.95,WNW,292,0.0,0.0,70,0.00,,---,0.06,VWS V14.01,2013-06-13 01:06:00,
2013-06-12 21:11:00,60.9,51.1,29.95,WNW,292,0.0,0.0,70,0.00,,---,0.06,VWS V14.01,2013-06-13 01:11:00,
2013-06-12 21:16:00,60.6,50.8,29.95,WNW,292,0.0,0.0,70,0.00,,---,0.06,VWS V14.01,2013-06-13 01:16:00,
2013-06-12 21:21:00,60.4,51.0,29.96,WNW,292,0.0,0.0,71,0.00,,---,0.06,VWS V14.01,2013-06-13 01:21:00,
2013-06-12 21:26:00,59.9,50.5,29.96,WNW,292,0.0,0.0,71,0.00,,---,0.06,VWS V14.01,2013-06-13 01:26:00,
2013-06-12 21:31:00,59.5,50.1,29.96,WNW,292,0.0,0.0,71,0.00,,---,0.06,VWS V14.01,2013-06-13 01:31:00,
2013-06-12 21:36:00,59.3,49.9,29.97,WNW,292,0.0,0.0,71,0.00,,---,0.06,VWS V14.01,2013-06-13 01:36:00,
2013-06-12 21:41:00,58.8,49.8,29.97,WNW,292,0.0,0.0,72,0.00,,---,0.06,VWS V14.01,2013-06-13 01:41:00,
2013-06-12 21:46:00,58.8,49.8,29.97,WNW,292,0.0,0.0,72,0.00,,---,0.06,VWS V14.01,2013-06-13 01:46:00,
2013-06-12 21:51:00,58.6,49.6,29.97,WNW,292,0.0,0.0,72,0.00,,---,0.06,VWS V14.01,2013-06-13 01:51:00,
2013-06-12 21:56:00,58.2,49.2,29.97,WNW,292,0.0,0.0,72,0.00,,---,0.06,VWS V14.01,2013-06-13 01:56:00,
2013-06-12 22:01:00,57.9,49.3,29.97,WNW,292,0.0,0.0,73,0.00,,---,0.06,VWS V14.01,2013-06-13 02:01:00,
2013-06-12 22:06:00,57.7,49.1,29.97,WNW,292,0.0,0.0,73,0.00,,---,0.06,VWS V14.01,2013-06-13 02:06:00,
2013-06-12 22:11:00,57.7,49.1,29.97,WNW,292,0.0,0.0,73,0.00,,---,0.06,VWS V14.01,2013-06-13 02:11:00,
2013-06-12 22:16:00,57.3,49.1,29.96,WNW,292,0.0,0.0,74,0.00,,---,0.06,VWS V14.01,2013-06-13 02:16:00,
2013-06-12 22:21:00,57.0,48.8,29.96,WNW,292,0.0,0.0,74,0.00,,---,0.06,VWS V14.01,2013-06-13 02:21:00,
2013-06-12 22:26:00,57.0,48.8,29.96,WNW,292,0.0,0.0,74,0.00,,---,0.06,VWS V14.01,2013-06-13 02:26:00,
2013-06-12 22:31:00,56.8,48.6,29.95,WNW,292,0.0,0.0,74,0.00,,---,0.06,VWS V14.01,2013-06-13 02:31:00,
2013-06-12 22:36:00,56.4,48.2,29.95,WNW,292,0.0,0.0,74,0.00,,---,0.06,VWS V14.01,2013-06-13 02:36:00,
2013-06-12 22:41:00,56.3,48.5,29.95,WNW,292,0.0,0.0,75,0.00,,---,0.06,VWS V14.01,2013-06-13 02:41:00,
2013-06-12 22:46:00,55.9,48.1,29.95,WNW,292,0.0,0.0,75,0.00,,---,0.06,VWS V14.01,2013-06-13 02:46:00,
2013-06-12 22:51:00,55.9,48.1,29.94,WNW,292,0.0,0.0,75,0.00,,---,0.06,VWS V14.01,2013-06-13 02:51:00,
2013-06-12 22:56:00,55.5,47.7,29.95,WNW,292,0.0,0.0,75,0.00,,---,0.06,VWS V14.01,2013-06-13 02:56:00,
2013-06-12 23:01:00,55.4,47.6,29.95,WNW,292,0.0,0.0,75,0.00,,---,0.06,VWS V14.01,2013-06-13 03:01:00,
2013-06-12 23:06:00,55.2,47.4,29.95,WNW,292,0.0,0.0,75,0.00,,---,0.06,VWS V14.01,2013-06-13 03:06:00,
2013-06-12 23:11:00,55.2,47.8,29.94,WNW,292,0.0,0.0,76,0.00,,---,0.06,VWS V14.01,2013-06-13 03:11:00,
2013-06-12 23:16:00,54.8,47.4,29.95,WNW,292,0.0,0.0,76,0.00,,---,0.06,VWS V14.01,2013-06-13 03:16:00,
2013-06-12 23:21:00,54.6,47.2,29.95,WNW,292,0.0,0.0,76,0.00,,---,0.06,VWS V14.01,2013-06-13 03:21:00,
2013-06-12 23:26:00,54.5,47.1,29.95,WNW,292,0.0,0.0,76,0.00,,---,0.06,VWS V14.01,2013-06-13 03:26:00,
2013-06-12 23:31:00,54.3,47.2,29.95,WNW,292,0.0,0.0,77,0.00,,---,0.06,VWS V14.01,2013-06-13 03:31:00,
2013-06-12 23:36:00,54.3,47.2,29.95,WNW,292,0.0,0.0,77,0.00,,---,0.06,VWS V14.01,2013-06-13 03:36:00,
2013-06-12 23:41:00,54.1,47.1,29.95,WNW,292,0.0,0.0,77,0.00,,---,0.06,VWS V14.01,2013-06-13 03:41:00,
2013-06-12 23:46:00,54.1,47.1,29.95,WNW,292,0.0,0.0,77,0.00,,---,0.06,VWS V14.01,2013-06-13 03:46:00,
2013-06-12 23:51:00,53.9,46.9,29.96,WNW,292,0.0,0.0,77,0.00,,---,0.06,VWS V14.01,2013-06-13 03:51:00,
2013-06-12 23:56:00,53.7,46.7,29.95,WNW,292,0.0,0.0,77,0.00,,---,0.06,VWS V14.01,2013-06-13 03:56:00,